#timestamp,LO_Frequency,Hit,StdDev 
1523865615.6,286047001.7,P
1523865635.4,286047004.4,P
1523865655.3,286047002.5,N
1523865675.1,286047001.8,N
1523865695.8,286047001.4,N
1523865715.7,286047001.4,N
1523865735.5,286047003.9,Y
1523865755.4,286046998.3,P
1523865775.2,286047000.8,N
1523865795.0,286046998.5,N
1523865795.9,286046998.5,N
1523865815.8,286046998.3,N
1523865835.6,286046998.3,N
1523865855.4,286046998.6,N
1523865875.3,286047000.5,N
1523865895.1,286046999.9,N
1523865915.9,286047001.2,N
1523865935.7,286047000.6,N
1523865955.5,286047000.5,N
1523865975.4,286047000.2,N
1523865995.2,286047000.3,N
1523866015.0,286046998.2,N
1523866015.9,286046998.2,N
1523866035.8,286046998.6,N
1523866055.6,286047001.1,N
1523866075.5,286046999.4,N
1523866095.3,286046996.5,N
1523866115.1,286046998.9,N
1523866135.9,286047000.0,N
1523866155.7,286047000.8,N
1523866175.5,286047001.1,N
1523866195.4,286046998.2,N
1523866215.2,286047000.7,N
1523866235.1,286046998.4,N
1523866236.0,286046998.4,N
1523866255.8,286046996.6,N
1523866275.6,286046997.7,N
1523866295.5,286046996.8,N
1523866315.3,286046998.9,N
1523866335.2,286047000.5,N
1523866355.9,286047001.1,N
1523866375.7,286046999.1,N
1523866395.6,286046998.8,N
1523866415.4,286046999.6,N
1523866435.2,286047001.1,N
1523866455.1,286047000.2,N
1523866456.0,286047000.2,N
1523866475.8,286047002.6,N
1523866495.7,286046998.3,N
1523866515.5,286046999.0,N
1523866535.3,286046998.6,N
1523866555.2,286046998.7,N
1523866575.9,286046999.1,N
1523866595.7,286046999.0,N
1523866615.6,286046998.3,N
1523866635.4,286047002.8,N
1523866655.3,286047000.4,N
1523866675.1,286047000.4,N
1523866676.0,286047000.4,N
1523866695.8,286047002.4,N
1523866715.7,286046999.9,N
1523866735.5,286047001.1,N
1523866755.3,286047001.0,N
1523866775.2,286047000.3,N
1523866795.0,286046999.4,N
1523866795.9,286046999.4,N
1523866815.8,286046996.6,N
1523866835.6,286046999.5,N
1523866855.4,286046997.0,N
1523866875.3,286046995.5,Y
1523866895.1,286046997.6,P
1523866915.9,286046997.6,N
1523866935.7,286046997.6,N
1523866955.5,286046999.6,N
1523866975.4,286046999.0,N
1523866995.2,286046998.8,N
1523867015.1,286046999.5,N
1523867016.0,286046999.5,N
1523867035.8,286046998.4,N
1523867055.6,286046997.5,N
1523867075.5,286046997.3,Y
1523867095.3,286047001.2,P
1523867115.1,286047000.1,N
1523867135.9,286047001.6,N
1523867155.7,286047003.9,Y
1523867175.6,286047002.5,P
1523867195.4,286046999.8,N
1523867215.2,286046999.7,N
1523867235.1,286047000.5,N
1523867236.0,286047000.5,N
1523867255.8,286046998.5,N
1523867275.7,286047000.1,N
1523867295.5,286047002.5,N
1523867315.3,286047002.1,N
1523867335.2,286047002.1,N
1523867355.9,286046999.9,N
1523867375.7,286046998.1,N
1523867395.6,286047000.9,N
1523867415.4,286047002.8,N
1523867435.3,286047000.4,N
1523867455.1,286047001.8,N
1523867456.0,286047001.8,N
1523867475.8,286047001.9,N
1523867495.7,286047003.8,N
1523867515.5,286047003.1,N
1523867535.3,286047005.6,Y
1523867555.2,286047004.3,P
1523867575.0,286047002.4,N
1523867575.9,286047002.4,N
1523867595.8,286047000.5,N
1523867615.6,286047002.6,N
1523867635.4,286046999.7,N
1523867655.3,286047002.4,N
1523867675.1,286047002.6,N
1523867695.9,286047000.0,N
1523867715.7,286047002.6,N
1523867735.5,286047000.8,N
1523867755.4,286046998.4,N
1523867775.2,286046998.6,N
1523867795.0,286047000.1,N
1523867795.9,286047000.1,N
1523867815.8,286047000.9,N
1523867835.6,286047002.4,N
1523867855.5,286047002.3,N
1523867875.3,286047000.2,N
1523867895.1,286047000.2,N
1523867915.9,286047002.6,N
1523867935.7,286047002.3,N
1523867955.5,286047002.4,N
1523867975.4,286046999.7,N
1523867995.2,286047002.2,N
1523868015.1,286047002.5,N
1523868016.0,286047002.5,N
1523868035.8,286047002.2,N
1523868055.6,286047001.8,N
1523868075.5,286047002.6,N
1523868095.3,286047002.1,N
1523868115.1,286046998.1,N
1523868135.9,286046999.0,N
1523868155.7,286046998.2,N
1523868175.6,286047000.0,N
1523868195.4,286047000.5,N
1523868215.2,286046999.9,N
1523868235.1,286047002.8,N
1523868236.0,286047002.8,N
1523868255.8,286047000.4,N
1523868275.7,286047000.0,N
1523868295.5,286046999.8,N
1523868315.3,286046999.8,N
1523868335.2,286047000.5,N
1523868355.0,286047002.5,N
1523868355.9,286047002.5,N
1523868375.8,286047002.5,N
1523868395.6,286047001.8,N
1523868415.4,286047004.3,N
1523868435.3,286047004.1,N
1523868455.1,286047004.4,N
1523868475.8,286046999.9,N
1523868495.7,286047000.9,N
1523868515.5,286047000.8,N
1523868535.4,286047000.9,N
1523868555.2,286046998.2,N
1523868575.0,286047000.7,N
1523868575.9,286047000.7,N
1523868595.8,286046999.8,N
1523868615.6,286047002.6,N
1523868635.4,286047001.5,N
1523868655.3,286047002.6,N
1523868675.1,286047002.6,N
1523868695.9,286047000.2,N
1523868715.7,286047002.8,N
1523868735.5,286047002.8,N
1523868755.4,286047002.7,N
1523868775.2,286047002.6,N
1523868795.0,286047000.6,N
1523868795.9,286047000.6,N
1523868815.8,286047002.3,N
1523868835.6,286047000.6,N
1523868855.5,286046998.3,N
1523868875.3,286046999.0,N
1523868895.1,286046999.5,N
1523868915.9,286046996.7,N
1523868935.7,286046997.4,N
1523868955.5,286046999.2,N
1523868975.4,286046998.3,N
1523868995.2,286047000.0,N
1523869015.1,286046999.7,N
1523869016.0,286046999.7,N
1523869035.8,286047002.6,N
1523869055.6,286047002.6,N
1523869075.5,286047002.3,N
1523869095.3,286047002.8,N
1523869115.1,286047002.2,N
1523869135.9,286047002.8,N
1523869155.7,286047002.3,N
1523869175.6,286047002.5,N
1523869195.4,286047002.0,N
